Home > Time Zones > World Clock > Weather > Iran > Gorgan > Past weeks

Flag for Iran Weather past 2 weeks in Gorgan, Iran

Now
97 °F

Sunny.


Feels Like: 103 °F
Forecast: 75 / 103 °F
Wind: 9 mph from Southwest

Location: Gorgan Airport

Current Time: Jun 30, 2015 at 12:50:18 PM

Latest Report: Jun 30, 2015 at 12:30 PM


Visibility: 10 mi

Pressure: 29.83 "Hg

Humidity: 42%

Dew point: 70 °F

Location of GorganLocation

Historic Weather in Gorgan — Graph

°F

Gorgan temperature yesterday

Maximum temperature yesterday: 102 °F (at 3:30 PM)
Minimum temperature yesterday: 73 °F (at 5:30 AM)
Average temperature yesterday: 86 °F

Past Weeks' High & Low Weather Summary

 TemperatureHumidityPressure
High106 °F (Jun 20, 3:30 PM)94% (Jun 18, 5:30 AM)29.86 "Hg (Jun 18, 5:30 AM)
Low68 °F (Jun 17, 3:30 AM)19% (Jun 20, 3:30 PM)29.47 "Hg (Jun 26, 3:00 PM)
Average84 °F58%29.68 "Hg
* Reported Jun 15 11:30 AM — Jun 30 11:30 AM, Gorgan, Weather by CustomWeather, © 2015

Note: Actual official high and low records may vary slightly from our data, if they occured in-between our weather recording intervals... More about our weather records

Advertising

Gorgan weather history for previous 24 hours

 ConditionsComfort  
Time TempWeatherWind HumidityBarometerVisibility
11:30 AM
Tue, Jun 30
95 °FSunny.7 mph41%29.86 "Hg10 mi
11:00 AM95 °FSunny.No wind41%29.86 "Hg10 mi
10:30 AM91 °FSunny.12 mph46%29.86 "Hg10 mi
9:30 AM90 °FSunny.9 mph49%29.86 "Hg10 mi
8:30 AM86 °FSunny.9 mph52%29.86 "Hg10 mi
7:30 AM82 °FSunny.12 mph70%29.83 "Hg10 mi
6:30 AM77 °FClear.5 mph83%29.83 "Hg10 mi
5:30 AM73 °FPassing clouds.5 mph89%29.80 "HgN/A
4:30 AM75 °FClear.5 mph83%29.80 "Hg10 mi
3:30 AM77 °FClear.5 mph83%29.80 "Hg10 mi
2:30 AM77 °FClear.5 mph79%29.77 "Hg10 mi
1:30 AM77 °FClear.No wind79%29.77 "Hg10 mi
12:30 AM81 °FClear.5 mph70%29.77 "Hg10 mi
11:30 PM
Mon, Jun 29
79 °FClear.5 mph74%29.80 "Hg10 mi
10:30 PM81 °FClear.5 mph74%29.80 "Hg10 mi
9:30 PM82 °FSunny.7 mph66%29.77 "Hg10 mi
8:30 PM86 °FSunny.14 mph49%29.77 "Hg10 mi
7:30 PM88 °FSunny.18 mph62%29.77 "Hg10 mi
6:30 PM90 °FSunny.16 mph55%29.74 "Hg10 mi
5:30 PM95 °FSunny.23 mph47%29.74 "Hg10 mi
4:30 PM102 °FSunny.23 mph35%29.71 "Hg10 mi
3:30 PM102 °FSunny.No wind33%29.74 "Hg10 mi
2:30 PM100 °FSunny.No wind33%29.74 "Hg10 mi
1:30 PM99 °FSunny.7 mph35%29.77 "Hg10 mi
12:30 PM97 °FSunny.9 mph39%29.77 "Hg10 mi
Weather by CustomWeather, © 2015

See weather overviewHow to use our weather pages